This is the latest recevied weather packets stored in our database for station/object KM8V-8. If no packets are shown the sender has not sent any weather packets the latest 10 day(s).
| Time | Temp. | Humidity | Pressure | Rain* | Wind** | Luminosity | Snow |
|---|---|---|---|---|---|---|---|
| 1777329627 | 21.67° C | 44% | 1013.8 hPa | 0 mm | - | 83 W/m² | - |
| 1777329328 | 21.67° C | 44% | 1013.7 hPa | 0 mm | - | 100 W/m² | - |
| 1777329028 | 22.22° C | 44% | 1013.7 hPa | 0 mm | - | 114 W/m² | - |
| 1777328728 | 22.22° C | 44% | 1013.7 hPa | 0 mm | - | 128 W/m² | - |
| 1777328428 | 22.22° C | 43% | 1013.7 hPa | 0 mm | - | 144 W/m² | - |
| 1777328128 | 22.22° C | 42% | 1013.7 hPa | 0 mm | - | 162 W/m² | - |
| 1777327828 | 22.22° C | 43% | 1013.8 hPa | 0 mm | - | 181 W/m² | - |
| 1777327528 | 22.22° C | 43% | 1013.7 hPa | 0 mm | - | 197 W/m² | - |
| 1777327219 | 22.22° C | 43% | 1013.7 hPa | 0 mm | - | 201 W/m² | - |
| 1777326920 | 22.78° C | 43% | 1013.8 hPa | 0 mm | - | 201 W/m² | - |
| 1777326629 | 22.78° C | 42% | 1013.8 hPa | 0 mm | - | 210 W/m² | - |
| 1777326329 | 22.78° C | 42% | 1013.8 hPa | 0 mm | - | 234 W/m² | - |
| 1777326029 | 22.78° C | 43% | 1013.8 hPa | 0 mm | - | 276 W/m² | - |
| 1777325729 | 22.78° C | 42% | 1013.8 hPa | 0 mm | - | 328 W/m² | - |
| 1777325429 | 22.78° C | 43% | 1013.8 hPa | 0 mm | - | 350 W/m² | - |
| 1777325129 | 22.78° C | 43% | 1014 hPa | 0 mm | - | 333 W/m² | - |
| 1777324829 | 22.78° C | 44% | 1014.1 hPa | 0 mm | - | 302 W/m² | - |
| 1777324529 | 22.78° C | 42% | 1014.1 hPa | 0 mm | - | 295 W/m² | - |
| 1777324229 | 22.22° C | 43% | 1014.2 hPa | 0 mm | - | 289 W/m² | - |
| 1777323930 | 22.22° C | 42% | 1014.2 hPa | 0 mm | - | 279 W/m² | - |
| 1777323621 | 22.22° C | 42% | 1014.2 hPa | 0 mm | - | 272 W/m² | - |
| 1777323321 | 22.78° C | 42% | 1014.2 hPa | 0 mm | - | 278 W/m² | - |
| 1777323030 | 22.78° C | 42% | 1014.2 hPa | 0 mm | - | 313 W/m² | - |
| 1777322731 | 22.78° C | 41% | 1014.4 hPa | 0 mm | - | 342 W/m² | - |
| 1777322430 | 22.78° C | 41% | 1014.3 hPa | 0 mm | - | 358 W/m² | - |
* Rain latest hour (hover to see other rain measurements)
** Current wind speed in m/s (hover to see current wind gust speed)